| time (UTC) | temp F | wind direction | speed knots | gust knots | rain 1hr in | rain 24hr in | rain mn in | humidity % | barometer mb |
| 20260506025021 | 78 | 167 | 3.5 | 5.2 | 0.00 | 0.00 | 0.00 | 87 | 1009.5 |
| 20260506024518 | 78 | 238 | 0.9 | 2.6 | 0.00 | 0.00 | 0.00 | 86 | 1009.6 |
| 20260506024014 | 78 | 286 | 1.7 | 7.8 | 0.00 | 0.00 | 0.00 | 86 | 1009.4 |
| 20260506023510 | 78 | 131 | 3.5 | 3.5 | 0.00 | 0.00 | 0.00 | 86 | 1009.3 |
| 20260506023008 | 78 | 134 | 2.6 | 3.5 | 0.00 | 0.00 | 0.00 | 86 | 1009.4 |
| 20260506022505 | 78 | 127 | 2.6 | 5.2 | 0.00 | 0.00 | 0.00 | 86 | 1009.5 |
| 20260506022003 | 78 | 152 | 1.7 | 6.1 | 0.00 | 0.00 | 0.00 | 86 | 1009.3 |
| 20260506021500 | 78 | 170 | 4.3 | 7.0 | 0.00 | 0.00 | 0.00 | 85 | 1009.3 |
| 20260506020957 | 78 | 191 | 1.7 | 7.0 | 0.00 | 0.00 | 0.00 | 85 | 1009.2 |
| 20260506020455 | 78 | 99 | 1.7 | 6.1 | 0.00 | 0.00 | 0.00 | 85 | 1009.1 |
| 20260506015951 | 78 | 187 | 2.6 | 5.2 | 0.00 | 0.00 | 0.00 | 86 | 1008.8 |
| 20260506015449 | 78 | 287 | 0.9 | 3.5 | 0.00 | 0.00 | 0.00 | 86 | 1008.8 |
| 20260506014946 | 78 | 168 | 1.7 | 3.5 | 0.00 | 0.00 | 0.00 | 86 | 1008.7 |
| 20260506014443 | 78 | 129 | 1.7 | 6.1 | 0.00 | 0.00 | 0.00 | 85 | 1008.9 |
| 20260506013939 | 78 | 128 | 2.6 | 5.2 | 0.00 | 0.00 | 0.00 | 85 | 1008.5 |
| 20260506013437 | 78 | 134 | 0.0 | 6.1 | 0.00 | 0.00 | 0.00 | 85 | 1008.5 |
| 20260506012933 | 78 | 181 | 3.5 | 6.1 | 0.00 | 0.00 | 0.00 | 85 | 1008.6 |
| 20260506012430 | 78 | 180 | 0.0 | 2.6 | 0.00 | 0.00 | 0.00 | 85 | 1008.6 |
| 20260506011927 | 78 | 149 | 3.5 | 6.1 | 0.00 | 0.00 | 0.00 | 85 | 1008.5 |
| 20260506011424 | 79 | 222 | 1.7 | 5.2 | 0.00 | 0.00 | 0.00 | 84 | 1008.3 |
| 20260506010921 | 79 | 91 | 3.5 | 6.1 | 0.00 | 0.00 | 0.00 | 84 | 1008.4 |
| 20260506010420 | 79 | 256 | 0.9 | 2.6 | 0.00 | 0.00 | 0.00 | 84 | 1008.3 |
| 20260506005915 | 79 | 110 | 3.5 | 5.2 | 0.00 | 0.00 | 0.00 | 84 | 1008.1 |
| 20260506005414 | 79 | 356 | 0.9 | 6.1 | 0.00 | 0.00 | 0.00 | 84 | 1008.1 |
| 20260506004909 | 79 | 169 | 3.5 | 5.2 | 0.00 | 0.00 | 0.00 | 83 | 1008.0 |
| 20260506004407 | 79 | 82 | 1.7 | 3.5 | 0.00 | 0.00 | 0.00 | 83 | 1008.1 |
| 20260506003902 | 79 | 197 | 3.5 | 6.1 | 0.00 | 0.00 | 0.00 | 83 | 1007.9 |
| 20260506003359 | 79 | 164 | 2.6 | 6.1 | 0.00 | 0.00 | 0.00 | 83 | 1008.0 |
| 20260506002855 | 79 | 116 | 3.5 | 6.1 | 0.00 | 0.00 | 0.00 | 82 | 1007.8 |
| 20260506002352 | 80 | 145 | 1.7 | 5.2 | 0.00 | 0.00 | 0.00 | 82 | 1008.0 |
| 20260506001848 | 80 | 125 | 0.9 | 7.0 | 0.00 | 0.00 | 0.00 | 82 | 1007.8 |
| 20260506001344 | 80 | 132 | 3.5 | 7.8 | 0.00 | 0.00 | 0.00 | 82 | 1007.8 |
| 20260506000841 | 80 | 124 | 4.3 | 7.8 | 0.00 | 0.00 | 0.00 | 81 | 1007.8 |
| 20260506000340 | 80 | 123 | 4.3 | 8.7 | 0.00 | 0.00 | 0.00 | 81 | 1008.0 |
| 20260505235836 | 80 | 120 | 4.3 | 7.0 | 0.00 | 0.00 | 0.00 | 81 | 1007.9 |
| 20260505235333 | 80 | 123 | 1.7 | 7.0 | 0.00 | 0.00 | 0.00 | 81 | 1007.7 |
| 20260505234830 | 80 | 114 | 1.7 | 8.7 | 0.00 | 0.00 | 0.00 | 80 | 1007.8 |
| 20260505234328 | 80 | 135 | 1.7 | 7.0 | 0.00 | 0.00 | 0.00 | 80 | 1007.9 |
| 20260505233825 | 80 | 90 | 1.7 | 6.1 | 0.00 | 0.00 | 0.00 | 80 | 1007.9 |
| 20260505233323 | 80 | 126 | 1.7 | 5.2 | 0.00 | 0.00 | 0.00 | 80 | 1007.9 |
| 20260505232820 | 81 | 81 | 3.5 | 6.1 | 0.00 | 0.00 | 0.00 | 80 | 1007.6 |
| 20260505232317 | 81 | 146 | 4.3 | 5.2 | 0.00 | 0.00 | 0.00 | 79 | 1007.9 |
| 20260505231814 | 81 | 123 | 0.9 | 2.6 | 0.00 | 0.00 | 0.00 | 80 | 1007.9 |
| 20260505231312 | 81 | 246 | 2.6 | 3.5 | 0.00 | 0.00 | 0.00 | 79 | 1008.2 |
| 20260505230810 | 81 | 179 | 2.6 | 8.7 | 0.00 | 0.00 | 0.00 | 79 | 1008.0 |
| 20260505230307 | 81 | 157 | 3.5 | 6.1 | 0.00 | 0.00 | 0.00 | 79 | 1008.1 |
| 20260505225803 | 81 | 134 | 3.5 | 5.2 | 0.00 | 0.00 | 0.00 | 78 | 1007.9 |
| 20260505225300 | 81 | 133 | 4.3 | 7.8 | 0.00 | 0.00 | 0.00 | 78 | 1007.9 |
| 20260505224755 | 82 | 148 | 4.3 | 7.8 | 0.00 | 0.00 | 0.00 | 77 | 1008.1 |
| 20260505224253 | 82 | 284 | 3.5 | 6.1 | 0.00 | 0.00 | 0.00 | 77 | 1008.0 |
| 20260505223751 | 82 | 130 | 2.6 | 5.2 | 0.00 | 0.00 | 0.00 | 76 | 1008.1 |
| 20260505223247 | 82 | 164 | 1.7 | 5.2 | 0.00 | 0.00 | 0.00 | 76 | 1007.9 |
| 20260505222743 | 83 | 310 | 2.6 | 7.0 | 0.00 | 0.00 | 0.00 | 76 | 1008.0 |
| 20260505222239 | 82 | 142 | 5.2 | 7.8 | 0.00 | 0.00 | 0.00 | 76 | 1008.1 |
| 20260505221737 | 83 | 146 | 3.5 | 6.1 | 0.00 | 0.00 | 0.00 | 76 | 1008.1 |
| 20260505221233 | 83 | 106 | 5.2 | 9.6 | 0.00 | 0.00 | 0.00 | 75 | 1008.2 |
| 20260505220730 | 83 | 233 | 0.0 | 6.1 | 0.00 | 0.00 | 0.00 | 75 | 1008.3 |
| 20260505220227 | 84 | 157 | 4.3 | 7.8 | 0.00 | 0.00 | 0.00 | 73 | 1008.2 |
| 20260505215726 | 83 | 167 | 1.7 | 3.5 | 0.00 | 0.00 | 0.00 | 75 | 1008.0 |
| 20260505215223 | 83 | 123 | 3.5 | 7.0 | 0.00 | 0.00 | 0.00 | 75 | 1008.1 |
| 20260505214720 | 83 | 130 | 3.5 | 3.5 | 0.00 | 0.00 | 0.00 | 76 | 1008.3 |
| 20260505214218 | 83 | 249 | 1.7 | 3.5 | 0.00 | 0.00 | 0.00 | 76 | 1008.4 |
| 20260505213715 | 83 | 331 | 0.9 | 5.2 | 0.00 | 0.00 | 0.00 | 76 | 1008.6 |
| 20260505213212 | 83 | 135 | 3.5 | 6.1 | 0.00 | 0.00 | 0.00 | 76 | 1008.5 |
| 20260505212708 | 83 | 5 | 0.9 | 6.1 | 0.00 | 0.00 | 0.00 | 76 | 1008.6 |
| 20260505212206 | 83 | 120 | 1.7 | 8.7 | 0.00 | 0.00 | 0.00 | 76 | 1008.7 |
| 20260505211702 | 82 | 161 | 1.7 | 3.5 | 0.00 | 0.00 | 0.00 | 76 | 1008.6 |
| 20260505211200 | 83 | 133 | 3.5 | 7.0 | 0.00 | 0.00 | 0.00 | 75 | 1008.6 |
| 20260505210656 | 83 | 274 | 1.7 | 5.2 | 0.00 | 0.00 | 0.00 | 74 | 1008.7 |
| 20260505210153 | 83 | 25 | 1.7 | 5.2 | 0.00 | 0.00 | 0.00 | 74 | 1008.8 |
| 20260505205650 | 84 | 244 | 2.6 | 6.1 | 0.00 | 0.00 | 0.00 | 73 | 1009.1 |
| 20260505205148 | 84 | 340 | 0.9 | 5.2 | 0.00 | 0.00 | 0.00 | 72 | 1009.1 |
| 20260505204645 | 84 | 148 | 3.5 | 3.5 | 0.00 | 0.00 | 0.00 | 73 | 1009.1 |
| 20260505204143 | 84 | 140 | 0.9 | 6.1 | 0.00 | 0.00 | 0.00 | 73 | 1009.2 |
| 20260505203640 | 84 | 166 | 3.5 | 7.8 | 0.00 | 0.00 | 0.00 | 73 | 1009.3 |
| 20260505203136 | 85 | 51 | 1.7 | 6.1 | 0.00 | 0.00 | 0.00 | 72 | 1009.4 |
| 20260505202632 | 85 | 89 | 2.6 | 5.2 | 0.00 | 0.00 | 0.00 | 72 | 1009.3 |
| 20260505202128 | 84 | 101 | 0.9 | 6.1 | 0.00 | 0.00 | 0.00 | 73 | 1009.7 |
| 20260505201625 | 84 | 142 | 3.5 | 7.0 | 0.00 | 0.00 | 0.00 | 74 | 1009.4 |
| 20260505201123 | 84 | 160 | 4.3 | 7.8 | 0.00 | 0.00 | 0.00 | 74 | 1009.5 |
| 20260505200621 | 84 | 102 | 2.6 | 7.8 | 0.00 | 0.00 | 0.00 | 75 | 1009.7 |
| 20260505200118 | 84 | 103 | 2.6 | 3.5 | 0.00 | 0.00 | 0.00 | 74 | 1009.7 |
| 20260505195614 | 84 | 215 | 2.6 | 3.5 | 0.00 | 0.00 | 0.00 | 75 | 1009.6 |
| 20260505195111 | 84 | 99 | 2.6 | 5.2 | 0.00 | 0.00 | 0.00 | 75 | 1009.6 |
| 20260505194608 | 84 | 25 | 0.9 | 3.5 | 0.00 | 0.00 | 0.00 | 73 | 1009.7 |
| 20260505194104 | 83 | 176 | 3.5 | 3.5 | 0.00 | 0.00 | 0.00 | 74 | 1009.8 |
| 20260505193601 | 83 | 125 | 1.7 | 3.5 | 0.00 | 0.00 | 0.00 | 74 | 1010.0 |
| 20260505193058 | 83 | 173 | 1.7 | 3.5 | 0.00 | 0.00 | 0.00 | 74 | 1010.0 |
| 20260505192557 | 83 | 126 | 2.6 | 6.1 | 0.00 | 0.00 | 0.00 | 74 | 1009.9 |
| 20260505192054 | 83 | 169 | 2.6 | 5.2 | 0.00 | 0.00 | 0.00 | 75 | 1010.0 |
| 20260505191552 | 83 | 151 | 0.9 | 2.6 | 0.00 | 0.00 | 0.00 | 75 | 1010.0 |
| 20260505191049 | 83 | 94 | 2.6 | 3.5 | 0.00 | 0.00 | 0.00 | 74 | 1009.8 |
| 20260505190544 | 84 | 15 | 1.7 | 9.6 | 0.00 | 0.00 | 0.00 | 73 | 1009.9 |
| 20260505190040 | 83 | 95 | 1.7 | 6.1 | 0.00 | 0.00 | 0.00 | 75 | 1010.1 |
| 20260505185537 | 83 | 88 | 1.7 | 6.1 | 0.00 | 0.00 | 0.00 | 76 | 1009.9 |
| 20260505185033 | 83 | 116 | 3.5 | 6.1 | 0.00 | 0.00 | 0.00 | 76 | 1010.0 |
| 20260505184530 | 83 | 116 | 0.9 | 2.6 | 0.00 | 0.00 | 0.00 | 77 | 1010.1 |
| 20260505184027 | 83 | 46 | 2.6 | 7.0 | 0.00 | 0.00 | 0.00 | 76 | 1010.3 |
| 20260505183524 | 82 | 285 | 1.7 | 2.6 | 0.00 | 0.00 | 0.00 | 77 | 1010.2 |
| 20260505183021 | 81 | 142 | 0.9 | 6.1 | 0.00 | 0.00 | 0.00 | 79 | 1010.2 |
| 20260505182518 | 82 | 279 | 5.2 | 6.1 | 0.00 | 0.00 | 0.00 | 77 | 1010.3 |
| 20260505182015 | 82 | 200 | 1.7 | 2.6 | 0.00 | 0.00 | 0.00 | 77 | 1010.3 |
| 20260505181511 | 82 | 160 | 0.9 | 2.6 | 0.00 | 0.00 | 0.00 | 77 | 1010.3 |
| 20260505181008 | 82 | 144 | 7.0 | 11.3 | 0.00 | 0.00 | 0.00 | 76 | 1010.4 |
| 20260505180503 | 82 | 168 | 5.2 | 6.1 | 0.00 | 0.00 | 0.00 | 77 | 1010.5 |
| 20260505175000 | 82 | 57 | 1.7 | 5.2 | 0.00 | 0.00 | 0.00 | 77 | 1010.6 |
| 20260505174457 | 82 | 57 | 1.7 | 5.2 | 0.00 | 0.00 | 0.00 | 77 | 1010.6 |
| 20260505173953 | 82 | 212 | 1.7 | 3.5 | 0.00 | 0.00 | 0.00 | 78 | 1010.6 |
| 20260505173449 | 81 | 266 | 0.0 | 6.1 | 0.00 | 0.00 | 0.00 | 79 | 1010.6 |
| 20260505172946 | 81 | 117 | 1.7 | 7.8 | 0.00 | 0.00 | 0.00 | 80 | 1010.6 |
| 20260505172445 | 80 | 193 | 0.9 | 3.5 | 0.00 | 0.00 | 0.00 | 80 | 1010.6 |
| 20260505171944 | 80 | 139 | 0.9 | 2.6 | 0.00 | 0.00 | 0.00 | 81 | 1010.7 |
| 20260505171441 | 80 | 200 | 0.9 | 3.5 | 0.00 | 0.00 | 0.00 | 81 | 1010.9 |
| 20260505170937 | 80 | 123 | 1.7 | 3.5 | 0.00 | 0.00 | 0.00 | 81 | 1010.8 |
| 20260505170434 | 80 | 115 | 1.7 | 2.6 | 0.00 | 0.00 | 0.00 | 80 | 1010.9 |
| 20260505165930 | 80 | 84 | 3.5 | 3.5 | 0.00 | 0.00 | 0.00 | 80 | 1010.8 |
| 20260505165426 | 80 | 100 | 0.9 | 3.5 | 0.00 | 0.00 | 0.00 | 80 | 1010.7 |
| 20260505164921 | 80 | 118 | 1.7 | 7.0 | 0.00 | 0.00 | 0.00 | 80 | 1010.9 |
| 20260505164418 | 81 | 141 | 4.3 | 7.0 | 0.00 | 0.00 | 0.00 | 79 | 1010.7 |
| 20260505163916 | 80 | 138 | 0.0 | 2.6 | 0.00 | 0.00 | 0.00 | 80 | 1010.8 |
| 20260505163415 | 81 | 129 | 1.7 | 2.6 | 0.00 | 0.00 | 0.00 | 79 | 1010.6 |
| 20260505162914 | 81 | 92 | 2.6 | 3.5 | 0.00 | 0.00 | 0.00 | 80 | 1010.8 |
| 20260505162409 | 80 | 261 | 0.0 | 6.1 | 0.00 | 0.00 | 0.00 | 82 | 1010.8 |
| 20260505161906 | 80 | 202 | 1.7 | 6.1 | 0.00 | 0.00 | 0.00 | 81 | 1010.6 |
| 20260505161403 | 80 | 110 | 1.7 | 3.5 | 0.00 | 0.00 | 0.00 | 81 | 1010.9 |
| 20260505160900 | 80 | 130 | 2.6 | 2.6 | 0.00 | 0.00 | 0.00 | 81 | 1010.8 |
| 20260505160358 | 80 | 270 | 1.7 | 2.6 | 0.00 | 0.00 | 0.00 | 81 | 1010.5 |
| 20260505151149 | 78 | 146 | 6.1 | 7.8 | 0.00 | 0.00 | 0.00 | 82 | 1010.3 |
| 20260505150645 | 78 | 146 | 6.1 | 7.8 | 0.00 | 0.00 | 0.00 | 82 | 1010.3 |
| 20260505150142 | 79 | 119 | 3.5 | 7.8 | 0.00 | 0.00 | 0.00 | 83 | 1010.4 |
| 20260505140611 | 76 | 133 | 0.9 | 2.6 | 0.00 | 0.00 | 0.00 | 88 | 1010.5 |
| 20260505140108 | 76 | 145 | 2.6 | 6.1 | 0.00 | 0.00 | 0.00 | 88 | 1010.3 |
| 20260505125024 | 74 | 79 | 0.0 | 1.7 | 0.00 | 0.00 | 0.00 | 92 | 1010.1 |
| 20260505124521 | 73 | 137 | 1.7 | 5.2 | 0.00 | 0.00 | 0.00 | 92 | 1009.9 |
| 20260505124017 | 73 | 132 | 0.0 | 0.9 | 0.00 | 0.00 | 0.00 | 93 | 1010.0 |
| 20260505123514 | 73 | 112 | 0.0 | 0.9 | 0.00 | 0.00 | 0.00 | 93 | 1010.1 |
| 20260505123010 | 72 | 135 | 0.0 | 1.7 | 0.00 | 0.00 | 0.00 | 93 | 1009.8 |
| 20260505122507 | 72 | 147 | 3.5 | 3.5 | 0.00 | 0.00 | 0.00 | 93 | 1009.9 |
| 20260505122004 | 72 | 81 | 1.7 | 1.7 | 0.00 | 0.00 | 0.00 | 93 | 1009.7 |
| 20260505121500 | 72 | 123 | 0.9 | 1.7 | 0.00 | 0.00 | 0.00 | 93 | 1009.6 |
| 20260505120957 | 72 | 143 | 1.7 | 3.5 | 0.00 | 0.00 | 0.00 | 93 | 1009.3 |
| 20260505120453 | 72 | 146 | 1.7 | 3.5 | 0.00 | 0.00 | 0.00 | 92 | 1009.5 |
| 20260505115952 | 72 | 144 | 1.7 | 1.7 | 0.00 | 0.00 | 0.00 | 92 | 1009.4 |
| 20260505115449 | 72 | 140 | 0.0 | 1.7 | 0.00 | 0.00 | 0.00 | 92 | 1009.7 |
| 20260505114947 | 72 | 124 | 0.9 | 1.7 | 0.00 | 0.00 | 0.00 | 92 | 1009.8 |
| 20260505114443 | 72 | 135 | 1.7 | 2.6 | 0.00 | 0.00 | 0.00 | 93 | 1010.0 |
| 20260505113940 | 72 | 131 | 1.7 | 1.7 | 0.00 | 0.00 | 0.00 | 92 | 1009.7 |
| 20260505113436 | 72 | 130 | 0.9 | 1.7 | 0.00 | 0.00 | 0.00 | 92 | 1009.7 |
| 20260505112932 | 72 | 139 | 2.6 | 3.5 | 0.00 | 0.00 | 0.00 | 92 | 1009.5 |
| 20260505112430 | 72 | 129 | 1.7 | 2.6 | 0.00 | 0.00 | 0.00 | 92 | 1009.5 |
| 20260505111926 | 72 | 164 | 0.0 | 2.6 | 0.00 | 0.00 | 0.00 | 93 | 1009.4 |
| 20260505111420 | 72 | 130 | 1.7 | 2.6 | 0.00 | 0.00 | 0.00 | 93 | 1009.4 |
| 20260505110917 | 72 | 140 | 0.0 | 3.5 | 0.00 | 0.00 | 0.00 | 93 | 1009.8 |
| 20260505110414 | 71 | 124 | 0.0 | 1.7 | 0.00 | 0.00 | 0.00 | 93 | 1009.7 |
| 20260505101845 | 71 | 137 | 0.9 | 1.7 | 0.00 | 0.00 | 0.00 | 92 | 1009.6 |
| 20260505101339 | 71 | 136 | 0.0 | 1.7 | 0.00 | 0.00 | 0.00 | 93 | 1009.7 |
| 20260505100835 | 71 | 106 | 0.0 | 0.0 | 0.00 | 0.00 | 0.00 | 93 | 1009.9 |
| 20260505100332 | 71 | 124 | 0.9 | 0.9 | 0.00 | 0.00 | 0.00 | 93 | 1009.9 |
| 20260505095828 | 71 | 131 | 0.0 | 0.9 | 0.00 | 0.00 | 0.00 | 92 | 1009.8 |
| 20260505095326 | 71 | 132 | 0.9 | 1.7 | 0.00 | 0.00 | 0.00 | 92 | 1009.8 |
| 20260505094822 | 71 | 132 | 1.7 | 3.5 | 0.00 | 0.00 | 0.00 | 92 | 1009.6 |
| 20260505094319 | 71 | 129 | 0.0 | 2.6 | 0.00 | 0.00 | 0.00 | 92 | 1009.6 |
| 20260505093814 | 71 | 137 | 1.7 | 2.6 | 0.00 | 0.00 | 0.00 | 92 | 1009.7 |
| 20260505093312 | 71 | 147 | 1.7 | 1.7 | 0.00 | 0.00 | 0.00 | 92 | 1009.9 |
| 20260505092808 | 71 | 135 | 0.9 | 2.6 | 0.00 | 0.00 | 0.00 | 92 | 1009.8 |
| 20260505092307 | 71 | 146 | 0.9 | 1.7 | 0.00 | 0.00 | 0.00 | 92 | 1010.1 |
| 20260505091804 | 71 | 124 | 0.9 | 0.9 | 0.00 | 0.00 | 0.00 | 92 | 1009.9 |
| 20260505091302 | 70 | 134 | 0.9 | 1.7 | 0.00 | 0.00 | 0.00 | 92 | 1010.1 |
| 20260505090800 | 70 | 139 | 0.0 | 0.9 | 0.00 | 0.00 | 0.00 | 92 | 1010.0 |
| 20260505090258 | 71 | 142 | 0.0 | 0.9 | 0.00 | 0.00 | 0.00 | 92 | 1010.0 |
| 20260505085755 | 71 | 106 | 1.7 | 2.6 | 0.00 | 0.00 | 0.00 | 92 | 1010.1 |
| 20260505085253 | 71 | 136 | 0.9 | 1.7 | 0.00 | 0.00 | 0.00 | 92 | 1010.1 |
| 20260505084750 | 71 | 120 | 0.9 | 1.7 | 0.00 | 0.00 | 0.00 | 92 | 1010.0 |
| 20260505084249 | 70 | 132 | 0.0 | 0.9 | 0.00 | 0.00 | 0.00 | 92 | 1010.2 |
| 20260505083745 | 70 | 145 | 0.0 | 0.9 | 0.00 | 0.00 | 0.00 | 92 | 1010.2 |
| 20260505083242 | 70 | 227 | 0.0 | 0.9 | 0.00 | 0.00 | 0.00 | 92 | 1010.1 |
| 20260505082739 | 70 | 146 | 0.0 | 1.7 | 0.00 | 0.00 | 0.00 | 92 | 1009.9 |
| 20260505082236 | 70 | 142 | 1.7 | 1.7 | 0.00 | 0.00 | 0.00 | 92 | 1010.2 |
| 20260505081732 | 69 | 152 | 0.0 | 1.7 | 0.00 | 0.00 | 0.00 | 93 | 1010.2 |
| 20260505081229 | 69 | 114 | 0.9 | 1.7 | 0.00 | 0.00 | 0.00 | 93 | 1010.1 |
| 20260505080726 | 69 | 105 | 0.0 | 0.0 | 0.00 | 0.00 | 0.00 | 92 | 1010.3 |
| 20260505080221 | 69 | 144 | 0.9 | 2.6 | 0.00 | 0.00 | 0.00 | 92 | 1010.1 |
| 20260505075717 | 69 | 146 | 1.7 | 1.7 | 0.00 | 0.00 | 0.00 | 92 | 1010.2 |
| 20260505075215 | 69 | 132 | 0.0 | 1.7 | 0.00 | 0.00 | 0.00 | 92 | 1010.3 |
| 20260505074712 | 69 | 144 | 0.0 | 1.7 | 0.00 | 0.00 | 0.00 | 91 | 1010.5 |
| 20260505074209 | 69 | 120 | 0.0 | 0.9 | 0.00 | 0.00 | 0.00 | 91 | 1010.3 |
| 20260505073706 | 69 | 141 | 0.0 | 1.7 | 0.00 | 0.00 | 0.00 | 91 | 1010.4 |
| 20260505073204 | 69 | 151 | 0.9 | 2.6 | 0.00 | 0.00 | 0.00 | 91 | 1010.5 |
| 20260505072700 | 69 | 140 | 1.7 | 5.2 | 0.00 | 0.00 | 0.00 | 91 | 1010.4 |
| 20260505072156 | 69 | 128 | 1.7 | 1.7 | 0.00 | 0.00 | 0.00 | 90 | 1010.6 |
| 20260505071652 | 69 | 128 | 0.9 | 3.5 | 0.00 | 0.00 | 0.00 | 90 | 1010.6 |
| 20260505071150 | 69 | 152 | 0.9 | 5.2 | 0.00 | 0.00 | 0.00 | 90 | 1010.7 |
| 20260505070647 | 69 | 152 | 1.7 | 2.6 | 0.00 | 0.00 | 0.00 | 90 | 1011.0 |
| 20260505070143 | 69 | 146 | 1.7 | 3.5 | 0.00 | 0.00 | 0.00 | 90 | 1010.8 |
| 20260505065639 | 69 | 107 | 2.6 | 2.6 | 0.00 | 0.00 | 0.00 | 90 | 1010.8 |
| 20260505065136 | 69 | 142 | 0.9 | 2.6 | 0.00 | 0.00 | 0.00 | 90 | 1010.9 |
| 20260505064633 | 69 | 134 | 0.9 | 2.6 | 0.00 | 0.00 | 0.00 | 90 | 1011.0 |
| 20260505064131 | 69 | 152 | 1.7 | 2.6 | 0.00 | 0.00 | 0.00 | 90 | 1011.2 |
| 20260505063628 | 69 | 130 | 0.0 | 1.7 | 0.00 | 0.00 | 0.00 | 90 | 1011.3 |
| 20260505063124 | 69 | 100 | 0.0 | 2.6 | 0.00 | 0.00 | 0.00 | 90 | 1011.3 |
| 20260505062621 | 69 | 135 | 0.9 | 1.7 | 0.00 | 0.00 | 0.00 | 90 | 1011.3 |
| 20260505062118 | 69 | 124 | 0.0 | 1.7 | 0.00 | 0.00 | 0.00 | 89 | 1011.5 |
| 20260505061615 | 69 | 153 | 0.9 | 0.9 | 0.00 | 0.00 | 0.00 | 89 | 1011.6 |
| 20260505061113 | 69 | 155 | 0.9 | 1.7 | 0.00 | 0.00 | 0.00 | 89 | 1011.6 |
| 20260505060610 | 69 | 138 | 0.0 | 2.6 | 0.00 | 0.00 | 0.00 | 88 | 1011.5 |
| 20260505060107 | 69 | 154 | 0.9 | 2.6 | 0.00 | 0.00 | 0.00 | 88 | 1011.4 |
| 20260505055602 | 69 | 149 | 1.7 | 3.5 | 0.00 | 0.00 | 0.00 | 88 | 1011.5 |
| 20260505055059 | 69 | 104 | 0.9 | 2.6 | 0.00 | 0.00 | 0.00 | 88 | 1011.5 |
| 20260505054556 | 69 | 138 | 0.9 | 2.6 | 0.00 | 0.00 | 0.00 | 88 | 1011.6 |
| 20260505054055 | 69 | 139 | 1.7 | 2.6 | 0.00 | 0.00 | 0.00 | 87 | 1011.6 |
| 20260505053551 | 69 | 260 | 1.7 | 2.6 | 0.00 | 0.00 | 0.00 | 87 | 1011.7 |
| 20260505053048 | 69 | 125 | 1.7 | 2.6 | 0.00 | 0.00 | 0.00 | 87 | 1011.9 |
| 20260505052545 | 69 | 136 | 1.7 | 2.6 | 0.00 | 0.00 | 0.00 | 87 | 1011.9 |
| 20260505052043 | 69 | 131 | 0.0 | 1.7 | 0.00 | 0.00 | 0.00 | 87 | 1011.8 |
| 20260505051539 | 69 | 129 | 0.9 | 1.7 | 0.00 | 0.00 | 0.00 | 86 | 1011.7 |
| 20260505051037 | 69 | 105 | 0.9 | 2.6 | 0.00 | 0.00 | 0.00 | 86 | 1011.9 |
| 20260505050535 | 69 | 151 | 2.6 | 2.6 | 0.00 | 0.00 | 0.00 | 86 | 1011.9 |
| 20260505041503 | 70 | 99 | 3.5 | 3.5 | 0.00 | 0.00 | 0.00 | 83 | 1012.1 |
| 20260505041000 | 70 | 158 | 1.7 | 2.6 | 0.00 | 0.00 | 0.00 | 83 | 1012.2 |
| 20260505040457 | 70 | 148 | 0.9 | 3.5 | 0.00 | 0.00 | 0.00 | 83 | 1012.1 |
| 20260505035954 | 70 | 131 | 1.7 | 2.6 | 0.00 | 0.00 | 0.00 | 83 | 1011.9 |
| 20260505035450 | 71 | 119 | 0.0 | 2.6 | 0.00 | 0.00 | 0.00 | 82 | 1012.1 |
| 20260505034948 | 71 | 150 | 1.7 | 2.6 | 0.00 | 0.00 | 0.00 | 82 | 1012.2 |
| 20260505034444 | 71 | 135 | 1.7 | 2.6 | 0.00 | 0.00 | 0.00 | 82 | 1012.3 |
| 20260505033941 | 71 | 117 | 1.7 | 2.6 | 0.00 | 0.00 | 0.00 | 82 | 1012.4 |
| 20260505033438 | 71 | 142 | 2.6 | 3.5 | 0.00 | 0.00 | 0.00 | 82 | 1012.3 |
| 20260505032936 | 71 | 131 | 0.0 | 1.7 | 0.00 | 0.00 | 0.00 | 81 | 1012.4 |
| 20260505032433 | 71 | 146 | 0.9 | 1.7 | 0.00 | 0.00 | 0.00 | 81 | 1012.2 |
| 20260505031929 | 71 | 152 | 2.6 | 3.5 | 0.00 | 0.00 | 0.00 | 81 | 1012.4 |
| 20260505031427 | 71 | 153 | 3.5 | 3.5 | 0.00 | 0.00 | 0.00 | 80 | 1012.3 |
| 20260505030923 | 71 | 106 | 0.9 | 3.5 | 0.00 | 0.00 | 0.00 | 80 | 1012.3 |
| 20260505030419 | 72 | 137 | 0.0 | 2.6 | 0.00 | 0.00 | 0.00 | 79 | 1012.5 |
| 20260505025915 | 72 | 103 | 0.0 | 2.6 | 0.00 | 0.00 | 0.00 | 79 | 1012.3 |
| 20260505025412 | 72 | 121 | 0.9 | 2.6 | 0.00 | 0.00 | 0.00 | 78 | 1012.4 |